World > North America > United States > Mississippi > Artesia

Artesia, MS Hourly Weather Conditions

Feedback E-mail the Weather

Quick WX

Artesia, MS Weather Maps

°F °C°F °C
Artesia Weather Map
UTC Time: 12/1/2022, 13:06
Your Time:

Artesia, MS Regional Weather

Expires:202212011300;;118904
ASUS44 KJAN 011210
RWRMS 

MISSISSIPPI HOURLY WEATHER ROUNDUP
NATIONAL WEATHER SERVICE JACKSON MS
600 AM CST THU DEC 01 2022

NOTE: "FAIR: INDICATES FEW OR NO CLOUDS BELOW 12,000 FEET WITH NO
SIGNIFICANT WEATHER AND/OR OBSTRUCTIONS TO VISIBILITY.


MSZ003>006-009-014>017-022>024-029>033-037>039-011300-
NORTHEAST MISSISSIPPI
  
CITY           SKY/WX    TMP DP  RH WIND       PRES   REMARKS
ABERDEEN       FAIR      28  28 100 CALM      30.51R                  
COLUMBUS AFB   CLEAR     29  24  79 N3        30.52R                  
6HR MIN TEMP:  29; 6HR MAX TEMP:  35;                                

CORINTH        PTCLDY    27  25  93 CALM      30.51R                  
GOLDN TRIANGLE CLEAR     29  26  89 N8        30.49R WCI  21          
STARKVILLE     FAIR      28  27  93 CALM      30.47S                  
TUPELO         PTCLDY    29  23  78 N6        30.49S WCI  23          
6HR MIN TEMP:  27; 6HR MAX TEMP:  32;                                

$$


SKY/WX - Weather  TMP - Temperature  DP - Dew Point  RH - Humidity
WIND - Wind Direction/Speed PRES - Barometric Pressure VSB - Visibility
WCI - Wind Chill Index E13G22 Wind - East Wind 13 mph/Gusts of 22 mph

Trending Headlines

Trending Entertainment Headlines

Artesia Radar Loop

Use the map search tool if you want to place a location marker on the radar map...

Artesia Quick Facts

National Two Day Weather Forecast


E-mail the Artesia Weather Forecast

Voice your opinion or tell us about page issues...